Temp
66 65 65 66 64 63 71 72 72 71 70 70 71 71 70 71 71 73 75 67 68 71 71 71 70 69 69 68 68 68 67 67 67 67 66 66 65 65 65 65 64 64 64
66 64 65 65 63 63 69 72 72 71 72 72 70 70 70 71 72 72 75 73 66 67 69 70 70 70 69 68 68 67 67 67 67 66 65 65 65 64 64 64 64 64 64
65 65 67 63 62 64 68 70 70 71 71 72 70 70 70 70 70 71 73 74 70 64 66 68 70 70 70 69 67 67 66 66 66 65 65 64 64 64 63 63 63 63 63
67 65 65 63 62 62 67 69 69 69 69 70 69 70 70 70 69 70 72 73 74 74 66 66 67 68 69 69 68 67 67 66 66 65 65 64 64 63 63 63 63 63 63
66 65 63 62 61 65 66 68 69 69 68 69 69 69 69 69 69 69 70 70 71 72 73 64 64 65 66 67 68 68 67 66 66 66 65 64 64 63 63 63 63 63 63
65 64 63 61 61 64 67 68 66 68 69 68 69 67 68 69 69 68 69 70 71 70 71 71 71 69 63 65 67 68 68 68 67 67 66 65 64 64 63 63 63 63 63
64 62 61 61 62 64 67 65 66 65 66 68 65 64 65 66 66 67 67 68 69 69 70 70 70 70 69 63 65 67 69 69 68 67 67 66 65 64 64 63 63 63 63
62 61 60 61 62 66 65 66 65 65 66 66 65 64 58 61 64 64 64 65 66 69 68 68 69 69 69 69 67 65 67 69 69 69 68 66 65 65 64 64 63 63 63
60 60 60 61 63 65 64 64 65 65 63 64 67 67 59 60 61 63 62 64 64 64 67 68 67 67 67 68 67 65 60 62 66 68 68 67 66 65 65 65 64 64 64
61 60 60 61 63 65 64 64 66 64 62 60 64 67 68 65 61 56 60 63 63 63 63 65 68 66 67 69 66 62 58 57 60 64 66 67 67 67 66 65 65 64 64
61 61 60 60 60 63 64 63 63 65 67 65 65 64 65 65 66 63 58 58 61 64 67 66 66 67 68 68 67 63 56 55 56 60 63 65 66 67 67 66 65 65 65
60 60 60 59 59 60 59 60 61 65 65 66 66 66 65 64 63 63 60 60 61 63 66 67 66 67 67 65 64 60 56 53 54 57 60 62 64 65 66 66 66 66 66
58 59 60 59 60 59 60 60 59 60 62 63 65 64 64 65 65 66 63 61 63 64 63 63 64 65 65 66 67 58 57 52 52 55 57 58 60 62 63 64 65 66 66
60 59 60 60 60 60 59 59 59 58 59 60 62 64 65 64 65 67 65 63 60 60 62 63 62 64 66 67 66 56 64 52 51 52 53 55 57 58 59 60 61 63 64
61 60 60 59 60 60 60 59 58 58 58 58 59 61 60 65 63 64 65 67 65 60 62 65 62 65 66 68 64 67 66 59 52 51 51 52 54 55 56 56 58 59 60
61 61 62 60 58 59 59 58 59 59 58 58 58 57 57 60 61 61 59 61 57 63 59 66 68 67 67 65 64 63 65 57 52 50 49 49 51 52 53 54 55 56 57
59 59 60 59 59 60 60 58 58 58 58 60 60 59 59 59 58 57 57 57 57 56 57 63 70 71 66 65 65 64 61 61 63 51 49 49 49 49 50 51 51 52 53
60 59 60 60 61 61 63 61 60 58 57 57 58 58 57 58 57 59 58 57 60 63 60 60 67 68 67 68 68 67 66 64 65 58 51 49 49 48 48 48 48 49 49
63 62 61 60 61 63 64 61 62 63 62 61 60 59 59 59 58 59 60 61 62 61 61 60 63 68 70 70 67 65 65 67 69 59 51 49 49 49 49 48 48 48 48
63 63 64 64 64 64 62 62 62 62 63 64 64 63 63 64 64 64 64 64 63 60 61 58 59 63 66 69 68 64 65 68 65 67 59 55 54 51 47 47 46 46 46
62 63 63 63 64 63 62 62 61 60 61 62 64 65 66 63 56 60 66 65 65 63 62 60 60 63 63 64 63 66 63 64 65 66 65 65 64 62 60 48 48 46 45
51 55 57 57 57 53 37 39 46 60 61 61 62 64 65 54 54 47 47 49 59 62 60 59 60 58 60 64 66 64 63 61 58 65 60 58 52 44 40 40 41 42 43
48 48 47 47 43 38 36 37 37 46 53 57 58 59 61 63 55 63 51 44 45 45 47 59 58 58 58 59 59 58 58 57 56 61 51 52 37 33 36 37 37 37 37
44 41 40 39 40 38 36 36 36 45 48 51 54 56 56 56 57 54 56 55 54 53 49 49 52 54 43 35 38 45 48 47 35 31 34 33 32 29 32 33 35 35 35
41 38 37 36 36 35 35 35 37 43 46 46 38 36 35 37 37 38 42 49 51 36 33 33 33 32 31 32 32 38 38 37 33 28 28 30 29 27 27 27 30 32 32
37 36 35 35 34 35 34 34 37 41 39 37 34 33 33 34 34 35 37 38 34 31 30 28 27 27 27 27 29 28 31 33 32 29 26 28 27 29 24 28 28 29 29
MSLP
1014.18 1014.55 1015.27 1016.01 1016.59 1017.24 1017.51 1017.86 1018.53 1019.07 1019.58 1020.01 1020.52 1020.98 1021.58 1021.92 1022.29 1022.53 1022.57 1023.17 1023.47 1023.62 1024.00 1024.38 1024.74 1025.13 1025.41 1025.99 1026.23 1026.45 1026.83 1027.02 1027.16 1027.19 1027.38 1027.38 1027.70 1028.07 1028.25 1028.42 1028.43 1028.62 1028.69
1013.86 1014.41 1015.09 1015.83 1016.69 1017.08 1017.45 1017.89 1018.40 1019.17 1019.54 1020.07 1020.62 1021.05 1021.68 1022.10 1022.56 1022.87 1022.58 1023.23 1023.63 1023.95 1024.27 1024.40 1024.82 1025.17 1025.57 1025.99 1026.35 1026.59 1026.88 1027.11 1027.19 1027.30 1027.50 1027.59 1027.73 1028.14 1028.19 1028.47 1028.62 1028.71 1028.87
1013.63 1014.05 1014.95 1015.86 1016.36 1016.97 1017.44 1017.98 1018.74 1019.34 1019.79 1020.27 1020.67 1021.15 1021.79 1022.31 1022.86 1022.87 1022.93 1023.20 1023.83 1024.22 1024.41 1024.60 1024.79 1025.13 1025.56 1026.04 1026.56 1026.74 1026.91 1027.24 1027.29 1027.49 1027.63 1027.75 1027.81 1028.11 1028.38 1028.49 1028.66 1028.79 1028.96
1013.09 1013.89 1014.66 1015.52 1016.27 1016.78 1017.38 1017.81 1018.66 1019.34 1019.82 1020.38 1020.81 1021.15 1021.63 1022.37 1022.91 1023.01 1023.19 1023.47 1023.67 1024.16 1024.59 1024.79 1024.97 1025.30 1025.63 1025.96 1026.45 1026.66 1026.88 1027.19 1027.35 1027.38 1027.70 1027.82 1027.96 1028.11 1028.41 1028.59 1028.72 1028.83 1029.01
1012.70 1013.50 1014.35 1015.17 1016.06 1016.65 1017.17 1017.67 1018.55 1019.11 1019.80 1020.36 1020.79 1021.37 1021.82 1022.40 1022.91 1023.14 1023.33 1023.67 1023.95 1024.17 1024.35 1025.02 1025.29 1025.42 1025.71 1025.96 1026.30 1026.45 1026.74 1026.99 1027.21 1027.25 1027.57 1027.77 1027.92 1028.13 1028.36 1028.49 1028.60 1028.78 1028.95
1012.14 1013.07 1013.99 1014.99 1015.78 1016.47 1017.00 1017.60 1018.45 1019.26 1019.69 1020.17 1020.81 1021.48 1022.04 1022.62 1022.94 1023.13 1023.45 1023.66 1023.93 1024.31 1024.56 1024.76 1025.19 1025.54 1025.87 1026.00 1026.12 1026.27 1026.35 1026.59 1026.91 1027.08 1027.25 1027.56 1027.77 1027.95 1028.09 1028.16 1028.30 1028.51 1028.70
1012.05 1012.77 1013.84 1014.74 1015.45 1016.15 1016.47 1017.25 1018.19 1018.96 1019.70 1020.26 1021.09 1021.80 1022.44 1022.95 1022.93 1023.18 1023.59 1023.69 1023.83 1024.11 1024.46 1024.69 1024.89 1025.23 1025.62 1026.05 1026.05 1025.97 1025.93 1026.06 1026.41 1026.69 1026.85 1027.13 1027.33 1027.50 1027.74 1027.82 1027.88 1027.99 1028.14
1011.77 1012.44 1013.41 1014.27 1015.20 1015.86 1016.62 1017.06 1017.53 1018.53 1019.31 1020.06 1020.06 1020.97 1021.75 1022.75 1022.91 1023.05 1023.38 1023.44 1023.57 1023.60 1024.01 1024.44 1024.66 1024.91 1025.17 1025.42 1025.51 1025.70 1025.62 1025.63 1025.71 1025.91 1026.13 1026.42 1026.71 1026.87 1027.06 1027.23 1027.37 1027.48 1027.50
1011.77 1012.27 1013.15 1013.92 1014.90 1015.57 1016.18 1016.70 1017.09 1017.83 1018.56 1019.49 1019.80 1019.38 1020.39 1020.65 1021.82 1022.53 1022.95 1023.13 1023.41 1023.48 1023.47 1023.82 1024.21 1024.46 1024.69 1024.80 1024.95 1025.08 1025.21 1025.31 1025.38 1025.31 1025.36 1025.50 1025.66 1025.81 1026.02 1026.27 1026.45 1026.67 1026.64
1012.02 1012.23 1013.23 1013.93 1014.64 1015.25 1015.85 1016.50 1016.99 1017.58 1017.93 1018.66 1019.61 1019.45 1019.20 1019.70 1020.49 1021.67 1022.39 1022.51 1022.89 1022.97 1023.12 1023.26 1023.32 1023.60 1023.83 1023.97 1024.03 1024.06 1024.24 1024.65 1024.83 1024.87 1024.84 1024.76 1024.78 1024.95 1025.18 1025.31 1025.47 1025.67 1025.74
1012.15 1012.59 1013.24 1013.81 1014.32 1014.93 1015.53 1015.98 1016.78 1017.44 1017.79 1018.13 1018.57 1019.10 1019.15 1019.55 1019.75 1020.18 1020.97 1021.74 1022.21 1022.07 1021.62 1021.99 1022.33 1022.40 1022.62 1022.91 1023.07 1023.13 1023.47 1023.65 1023.89 1024.07 1024.11 1024.09 1024.13 1024.23 1024.21 1024.31 1024.40 1024.61 1024.71
1012.07 1012.54 1013.05 1013.59 1014.23 1014.80 1015.11 1015.61 1016.35 1016.96 1017.41 1017.80 1018.18 1018.35 1018.47 1018.73 1019.29 1019.64 1020.17 1020.66 1020.75 1020.99 1020.91 1020.77 1021.29 1021.37 1021.69 1021.99 1022.05 1021.94 1022.18 1022.51 1022.84 1023.00 1023.03 1023.11 1023.23 1023.24 1023.25 1023.29 1023.37 1023.39 1023.47
1012.11 1012.26 1012.76 1013.36 1013.95 1014.65 1015.24 1015.67 1016.15 1016.58 1017.01 1017.34 1017.63 1018.01 1018.25 1018.31 1018.62 1018.97 1019.37 1019.69 1019.83 1020.18 1020.35 1020.10 1020.46 1020.72 1020.90 1021.01 1020.83 1020.92 1021.17 1021.36 1021.60 1021.78 1021.93 1022.03 1022.05 1021.96 1021.97 1021.98 1021.97 1022.07 1022.13
1011.84 1012.03 1012.40 1012.95 1013.56 1014.09 1014.87 1015.59 1016.05 1016.26 1016.64 1017.00 1017.36 1017.65 1017.97 1018.24 1018.34 1018.38 1018.63 1018.99 1019.23 1019.39 1019.53 1019.74 1019.84 1019.98 1020.07 1019.70 1019.56 1019.71 1020.10 1020.28 1020.46 1020.58 1020.64 1020.74 1020.85 1020.91 1021.01 1020.97 1020.94 1020.96 1020.86
1011.61 1012.09 1012.30 1012.84 1013.23 1013.87 1014.54 1015.10 1015.68 1016.04 1016.22 1016.77 1017.07 1017.51 1017.71 1017.97 1018.15 1018.39 1018.61 1018.41 1018.25 1018.59 1018.46 1018.65 1018.89 1018.44 1018.61 1018.77 1018.80 1018.92 1019.10 1018.95 1019.21 1019.36 1019.49 1019.55 1019.68 1019.89 1019.87 1019.85 1019.67 1019.63 1019.63
1011.43 1011.81 1012.26 1012.69 1013.11 1013.38 1014.08 1014.76 1015.13 1015.54 1015.95 1016.25 1016.57 1016.84 1017.31 1017.61 1017.91 1018.05 1018.32 1018.57 1018.76 1018.53 1017.94 1017.66 1017.66 1017.80 1017.89 1017.98 1017.82 1018.08 1018.05 1017.74 1017.97 1018.24 1018.43 1018.51 1018.55 1018.59 1018.49 1018.35 1018.39 1018.42 1018.37
1011.15 1011.62 1012.01 1012.40 1012.71 1013.09 1013.64 1014.11 1014.49 1014.85 1015.23 1015.42 1015.83 1016.16 1016.45 1016.91 1017.04 1017.46 1017.91 1018.31 1018.37 1018.41 1018.12 1017.18 1017.01 1017.01 1017.33 1017.18 1016.91 1017.05 1017.03 1017.04 1016.75 1016.90 1017.08 1017.10 1017.05 1017.04 1017.00 1017.04 1017.19 1017.15 1017.09
1010.90 1011.22 1011.65 1012.08 1012.41 1012.71 1013.10 1013.51 1013.92 1014.29 1014.55 1014.77 1015.08 1015.61 1015.93 1016.23 1016.61 1016.73 1016.98 1017.06 1017.12 1017.19 1017.17 1016.52 1016.11 1015.70 1015.97 1015.91 1015.68 1015.59 1015.59 1015.63 1015.67 1015.56 1015.64 1015.66 1015.62 1015.50 1015.44 1015.33 1015.21 1015.27 1015.35
1010.52 1010.93 1011.31 1011.64 1011.92 1012.11 1012.40 1012.86 1013.15 1013.52 1013.97 1014.28 1014.55 1014.87 1015.01 1015.39 1015.50 1015.75 1015.83 1015.70 1015.83 1016.03 1016.11 1015.82 1014.77 1014.91 1014.50 1014.58 1014.62 1014.83 1014.45 1014.35 1014.17 1014.08 1014.23 1014.15 1014.06 1014.05 1013.91 1013.88 1013.92 1014.02 1014.13
1010.40 1010.64 1010.90 1011.11 1011.40 1011.69 1012.02 1012.33 1012.62 1012.84 1013.02 1013.23 1013.48 1013.67 1013.80 1013.85 1013.85 1014.07 1014.33 1014.39 1014.63 1014.86 1014.88 1014.88 1014.56 1013.59 1013.47 1013.25 1013.28 1013.10 1012.62 1012.74 1012.77 1012.83 1012.77 1012.71 1012.48 1012.44 1012.58 1012.71 1012.79 1012.85 1012.84
1010.12 1010.42 1010.71 1010.94 1011.15 1011.51 1011.82 1011.85 1011.91 1012.06 1012.18 1012.21 1012.23 1012.36 1012.43 1012.45 1012.49 1012.66 1012.92 1012.97 1013.31 1013.63 1013.69 1013.43 1013.06 1012.65 1012.16 1012.01 1011.76 1011.82 1011.60 1011.39 1010.99 1011.41 1011.07 1011.07 1011.16 1011.17 1011.31 1011.68 1011.70 1011.70 1011.88
1010.77 1010.57 1010.69 1010.86 1011.06 1012.11 1012.99 1012.60 1012.14 1011.39 1011.18 1011.15 1011.06 1011.03 1010.99 1011.21 1011.37 1011.72 1011.99 1012.02 1012.13 1012.23 1012.31 1012.22 1011.74 1011.38 1011.14 1010.95 1010.89 1010.78 1010.50 1010.20 1009.30 1009.96 1009.99 1010.09 1010.94 1011.61 1012.43 1012.42 1011.91 1011.53 1011.37
1011.55 1011.75 1012.09 1012.24 1012.66 1013.48 1013.63 1013.23 1012.77 1012.17 1011.64 1011.04 1010.77 1010.44 1010.14 1010.19 1010.50 1010.63 1010.64 1010.90 1010.98 1011.05 1011.13 1011.08 1010.44 1010.25 1010.09 1010.21 1010.39 1010.02 1009.70 1009.51 1008.82 1008.66 1009.88 1010.42 1012.37 1013.06 1013.57 1013.45 1012.89 1012.53 1012.90
1012.56 1013.07 1013.43 1013.81 1013.86 1014.25 1014.05 1013.50 1012.85 1012.09 1011.73 1011.37 1011.00 1010.57 1010.20 1010.11 1009.97 1010.01 1009.72 1009.69 1009.80 1010.05 1010.47 1010.59 1010.32 1010.04 1010.92 1011.17 1011.08 1010.55 1009.98 1009.45 1009.95 1011.01 1011.05 1011.91 1013.19 1014.02 1014.87 1014.57 1014.52 1013.98 1013.64
1013.79 1014.33 1014.65 1014.72 1014.84 1015.08 1014.74 1013.98 1013.02 1012.11 1011.65 1011.66 1012.43 1012.56 1012.39 1011.85 1011.27 1010.79 1010.24 1009.73 1009.62 1011.03 1011.78 1011.77 1011.91 1012.07 1012.24 1012.17 1011.47 1010.67 1010.47 1010.91 1011.70 1012.53 1012.64 1012.95 1014.17 1014.84 1014.62 1015.26 1015.33 1014.88 1015.31
1015.05 1015.45 1015.74 1015.83 1015.77 1015.63 1015.43 1014.56 1013.45 1012.79 1012.81 1013.31 1013.66 1013.77 1013.60 1012.91 1012.15 1011.18 1010.58 1010.51 1011.03 1012.13 1012.29 1012.60 1012.85 1012.95 1013.10 1012.50 1012.43 1012.48 1011.46 1011.06 1011.78 1012.59 1013.02 1012.99 1013.43 1013.69 1014.66 1015.88 1015.55 1015.37 1015.59
Wind_Speed
9 9 7 7 8 7 11 11 10 11 11 12 11 11 11 10 10 6 8 10 10 14 16 16 15 15 15 14 14 14 13 13 13 14 13 13 12 11 11 11 11 11 11
8 9 9 8 8 8 10 11 11 10 10 11 11 11 11 10 10 11 8 10 10 12 13 15 15 15 15 14 13 14 13 13 13 13 12 12 12 11 11 11 11 11 10
11 12 10 8 8 8 13 11 10 10 9 9 11 10 9 11 9 11 9 8 9 10 9 12 12 13 13 14 13 13 13 13 12 12 12 11 12 11 11 11 11 10 10
12 11 9 8 8 9 9 11 10 10 10 9 9 9 8 9 10 10 9 7 8 8 7 8 10 12 13 13 14 14 13 13 13 12 12 12 12 12 12 11 11 11 11
12 10 10 9 10 10 10 11 10 10 10 9 8 7 7 7 10 8 10 9 9 7 7 8 8 8 10 13 14 14 14 14 14 13 13 13 13 13 13 13 12 13 13
12 10 10 11 10 9 11 11 12 10 10 9 8 8 6 7 7 7 9 8 9 8 8 7 8 7 8 10 13 15 16 15 15 15 14 14 14 14 15 14 14 15 15
15 13 10 12 10 11 13 13 12 13 9 10 8 6 5 5 6 6 6 7 9 9 8 8 7 6 7 11 12 16 17 17 17 16 16 16 16 16 16 16 17 17 18
10 13 12 12 12 11 13 14 13 11 8 12 7 9 6 5 5 7 6 8 10 8 9 10 10 10 9 9 12 16 18 18 18 18 18 18 18 18 19 19 20 20 20
10 12 11 11 12 11 11 13 13 15 10 10 11 6 5 5 6 5 9 8 9 8 8 10 11 12 12 11 11 13 15 15 17 18 18 20 21 22 22 22 22 23 22
9 12 11 11 11 9 12 11 11 11 9 11 9 3 5 6 5 5 4 9 9 10 10 9 11 12 14 12 16 13 12 17 19 20 20 20 21 23 24 24 24 25 25
10 11 12 11 10 9 11 12 12 11 9 10 9 6 4 4 5 3 4 6 7 11 11 11 11 11 14 14 10 13 18 18 19 22 24 25 23 22 23 26 26 27 26
6 10 11 11 9 7 9 10 11 14 11 10 9 9 7 6 5 4 2 6 10 8 10 9 9 10 11 10 13 17 17 20 21 24 25 26 26 27 26 26 26 28 29
4 8 11 11 11 9 8 8 9 10 11 10 13 9 6 7 4 5 4 4 7 6 5 5 7 9 9 10 12 17 18 19 21 24 25 26 27 27 28 29 30 30 29
7 7 8 11 11 11 10 9 6 8 8 8 11 10 7 7 6 6 6 6 5 4 5 7 6 9 10 10 13 15 15 16 21 23 25 26 26 27 27 27 27 29 30
6 10 8 7 12 13 12 11 7 9 9 8 8 9 6 8 6 5 5 6 8 10 12 8 6 9 9 10 12 14 15 17 19 22 24 24 24 25 25 26 28 29 29
7 10 12 11 9 9 10 10 10 8 9 7 6 7 6 6 5 5 4 6 2 9 13 9 9 8 8 8 11 14 15 18 16 17 19 21 23 25 27 26 27 27 28
7 8 9 9 11 13 12 11 10 10 13 12 10 10 12 10 7 7 6 6 7 7 11 13 11 11 11 13 12 12 12 12 11 17 20 23 24 25 25 24 24 26 27
9 10 9 10 11 12 13 14 14 10 12 12 13 13 15 9 13 14 12 12 12 14 11 20 15 13 15 15 15 15 13 11 12 16 20 21 22 24 25 25 26 27 26
9 10 11 12 12 14 15 13 14 15 15 15 14 14 15 15 15 12 13 13 12 11 12 13 16 14 14 12 13 14 15 16 14 19 17 20 23 24 25 25 26 25 26
10 10 12 12 12 13 12 12 13 13 15 16 17 16 16 18 19 18 16 17 15 14 13 12 14 16 14 15 13 13 14 13 13 13 16 19 17 20 26 25 21 20 21
9 10 10 12 12 11 8 12 13 13 14 16 17 19 19 21 22 21 14 18 17 15 14 14 15 16 15 14 16 13 15 14 15 12 13 11 12 12 11 11 16 18 20
11 7 2 5 7 7 18 17 12 12 15 16 16 17 19 18 20 17 21 23 21 17 18 15 15 17 19 18 16 15 16 15 17 11 13 13 2 3 6 7 10 8 5
9 10 11 10 11 12 18 17 12 6 11 12 14 15 15 13 16 19 21 23 24 25 26 23 23 20 20 18 16 17 17 17 18 10 3 6 4 7 7 9 21 23 22
11 11 11 12 10 12 20 18 16 6 6 9 12 14 13 13 13 12 16 17 16 16 12 13 19 18 8 6 5 7 9 9 5 6 6 4 4 8 6 8 21 23 24
11 11 10 12 11 12 22 21 16 6 4 5 13 15 14 11 14 13 8 12 14 6 16 23 21 20 19 21 14 3 5 3 2 4 7 4 3 6 5 5 6 20 20
11 9 11 12 17 13 25 26 18 8 8 8 11 13 24 17 19 18 6 4 6 7 7 10 10 15 15 15 22 11 5 3 3 3 4 3 2 3 4 1 5 6 6
Wind_Direction
168 161 168 160 149 149 171 161 160 159 154 150 150 150 156 156 159 161 157 160 156 158 151 160 156 152 151 155 158 148 155 154 154 150 149 145 145 146 145 147 147 147 148
169 159 161 161 150 154 167 163 162 163 160 157 155 155 160 160 169 174 159 162 152 153 169 166 163 162 163 165 161 161 165 168 165 161 160 156 156 161 159 161 163 163 167
167 169 163 161 156 155 156 152 154 159 160 165 156 156 161 163 180 171 164 166 159 166 171 173 167 169 170 167 175 173 173 180 175 174 171 172 171 173 176 178 179 178 180
171 166 164 157 154 151 154 154 160 162 161 167 162 155 166 171 181 173 170 176 179 180 176 166 167 175 181 179 185 185 185 188 190 184 189 188 188 187 190 193 194 194 197
166 163 161 152 152 164 158 157 164 169 167 169 158 161 163 176 183 175 178 185 185 195 192 166 178 183 186 188 196 197 197 197 202 197 201 202 202 200 203 204 206 208 211
181 150 155 153 155 165 160 160 159 170 173 164 158 159 163 184 178 183 191 191 192 194 199 202 194 200 205 209 206 206 207 206 210 211 209 213 214 214 212 212 215 220 221
185 156 156 156 162 169 171 159 155 158 156 158 142 142 157 186 179 188 194 203 199 201 208 209 210 211 207 218 222 220 218 214 215 219 219 221 221 222 224 225 223 225 226
173 151 150 158 168 167 169 167 160 164 153 174 169 160 169 175 202 200 202 208 212 204 210 218 221 220 221 222 224 224 230 232 230 225 221 220 224 225 229 231 231 231 230
147 139 148 153 165 165 171 173 169 173 162 182 188 166 156 197 164 183 212 211 217 210 218 218 223 226 225 230 230 225 228 236 244 243 231 225 221 220 222 227 230 233 232
151 144 148 158 169 172 173 175 177 177 162 174 194 209 178 141 179 180 209 216 212 219 211 227 228 225 226 228 231 232 217 224 234 242 249 247 234 228 227 227 228 229 230
160 160 157 157 166 174 172 172 173 183 194 180 187 177 170 163 167 146 182 195 214 225 213 213 220 223 226 228 228 229 219 225 225 233 239 243 246 247 236 233 233 233 233
166 172 168 165 165 166 170 174 180 188 186 185 193 199 186 179 179 169 161 191 207 209 224 212 226 230 231 223 226 226 217 221 225 230 235 237 239 241 243 243 239 237 237
186 183 175 175 173 175 182 181 180 185 189 189 193 201 200 202 165 193 198 184 211 208 212 222 224 229 231 226 231 222 229 222 223 229 233 236 237 238 240 241 241 243 242
182 181 170 175 173 163 171 177 184 189 189 196 191 203 212 216 210 209 203 203 212 212 206 243 216 223 225 226 231 223 240 225 226 229 232 235 236 239 241 243 244 244 244
175 174 173 174 177 175 182 182 189 195 187 185 184 192 198 217 211 223 256 236 213 249 259 235 237 210 223 226 232 233 235 239 227 230 233 235 238 240 241 242 241 242 243
178 181 189 179 174 172 178 187 202 192 186 189 192 184 199 207 220 218 222 248 273 260 254 237 241 240 227 228 235 231 239 232 233 231 232 235 237 239 240 241 242 243 244
161 176 185 184 184 182 182 184 196 200 211 217 220 224 231 231 238 235 226 225 232 227 254 264 257 256 239 237 238 228 228 235 242 229 233 235 235 237 239 241 241 241 241
182 175 180 187 194 198 200 202 202 194 204 206 210 215 225 223 229 229 231 229 233 233 229 254 256 257 240 245 249 246 239 233 240 236 231 232 234 236 237 236 234 237 237
203 191 190 193 198 203 206 205 210 212 212 218 217 218 222 220 224 224 225 231 235 243 246 251 261 258 258 256 249 247 247 248 242 241 241 235 237 240 240 238 238 239 240
217 213 209 210 210 211 210 210 215 220 223 225 226 225 225 228 231 230 230 234 236 241 240 236 247 260 255 254 248 252 254 239 245 247 238 243 252 241 239 241 242 240 238
213 219 222 227 229 231 225 220 218 220 227 232 233 234 234 234 233 233 230 234 237 238 243 245 248 250 256 255 250 253 252 255 253 253 256 251 249 249 254 238 248 240 239
37 30 301 237 225 67 21 14 309 243 231 232 237 237 237 229 235 229 226 238 242 240 240 244 249 251 252 256 257 255 257 258 263 237 250 251 282 54 40 15 330 290 250
37 41 36 33 56 39 9 9 349 306 273 260 253 253 251 245 236 243 230 228 238 239 240 251 257 253 257 254 256 255 252 251 256 264 249 246 43 61 46 47 56 67 68
45 47 44 36 42 30 7 355 337 298 292 280 278 274 286 282 268 269 249 246 238 240 260 248 258 273 325 5 286 285 295 290 55 53 354 100 71 82 46 60 60 67 69
51 54 49 48 43 29 12 2 344 315 299 23 58 39 18 355 327 319 312 270 257 79 73 69 64 64 46 30 15 270 261 271 38 30 7 61 61 71 70 53 48 56 53
62 61 56 47 40 31 19 15 9 358 47 56 53 43 30 30 32 22 14 318 68 50 81 65 53 47 42 41 35 25 332 175 149 112 7 101 122 139 127 61 60 50 50